[[{"header":{"parameterUnit":"m.s-1","parameterCategory":2,"la1":30.2991,"la2":30.254,"lo1":-89.0895,"lo2":-89.0444,"dy":0.0017,"dx":0.0017,"nx":28,"ny":28,"refTime":"2024-05-30T21:00:00:Z","depth":"0","parameterNumber":2,"parameterNumberName":"U-component_of_CURRENTS"},"data":[0,0,0,0,0,0,0,0,0,0,0,0,0,0,0,0,0,0,0,0,0,0,0,0,0,0,0,0,0,0,0,0,0,0,0,0,0,0,0,0,0,0,0,0,0,0,0,0,0,0,0,0,0,0,0,0,0,0,0.1472,0.1472,0,0.1492,0.1492,0.1492,0.1502,0.1502,0.1502,0.1502,0.1497,0.1497,0.1497,0,0,0,0,0,0,0,0,0,0,0,0,0,0.1443,0.1443,0.1472,0.1472,0.1473,0.1492,0.1492,0.1492,0.1502,0.1502,0.1502,0.1502,0.1497,0.1497,0.1497,0,0,0,0,0,0,0,0,0,0,0,0,0,0.1457,0.1443,0.1472,0.1481,0.1482,0.1492,0.1492,0.1492,0.1502,0.1502,0.1502,0.1502,0.1497,0.1497,0.1497,0.1492,0,0,0.1496,0.1496,0,0,0,0,0,0,0,0,0.1456,0.1458,0.1479,0.148,0.1481,0.1496,0.148,0.1491,0.1501,0.1493,0.1502,0.1502,0.1495,0.1495,0.1497,0.1492,0.1491,0.1496,0.1496,0.1495,0.1495,0,0,0,0,0,0,0,0.1455,0.1457,0.1479,0.1479,0.1481,0.1484,0.1486,0.1482,0.1491,0.1493,0.1495,0.1499,0.1495,0.1497,0.1497,0.1491,0.1496,0.1496,0.1495,0.1495,0.1515,0.1516,0,0,0,0,0,0,0.1455,0.1456,0.1478,0.1479,0.147,0.1484,0.1486,0.149,0.1492,0.1493,0.1498,0.1499,0.1498,0.1497,0.1497,0.1527,0.1495,0.1495,0.1495,0.1515,0.1516,0.1516,0,0,0,0,0,0,0.1454,0.1457,0.1477,0.1469,0.1472,0.1485,0.1488,0.149,0.1498,0.1496,0.1497,0.1505,0.1498,0.1497,0.151,0.1526,0.1495,0.1495,0.1514,0.1515,0.1516,0.1565,0,0,0,0,0,0,0.1453,0.1456,0.1459,0.1469,0.1473,0.1493,0.1488,0.149,0.15,0.1501,0.1502,0.1501,0.1498,0.1511,0.151,0.1525,0.1494,0.1513,0.1514,0.1516,0.1562,0.1568,0.1572,0,0,0,0,0,0.1452,0.1456,0.1459,0.1461,0.1476,0.1493,0.1496,0.1504,0.1501,0.151,0.1514,0.1502,0.1518,0.1511,0.151,0.1525,0.1512,0.1514,0.1515,0.156,0.1566,0.1572,0,0,0,0,0,0,0.1444,0.1458,0.1461,0.1469,0.1484,0.1496,0.1503,0.1506,0.1516,0.1516,0.1512,0.1512,0.1528,0.1519,0.1511,0.1535,0.1512,0.1514,0.1547,0.1553,0.1557,0.1552,0.1494,0,0,0,0,0,0.1444,0.145,0.1466,0.1473,0.1481,0.1492,0.1499,0.1506,0.1516,0.1521,0.1522,0.1524,0.1532,0.1537,0.1538,0.1551,0.1564,0.156,0.1564,0.1569,0.1564,0.1611,0.162,0.1522,0.1522,0.1522,0,0,0.1441,0.145,0.1452,0.1471,0.1482,0.1498,0.1496,0.1512,0.1526,0.1518,0.1535,0.1539,0.1539,0.1558,0.1564,0.1554,0.1606,0.1571,0.1574,0.1567,0.1614,0.1623,0.1632,0.1523,0.1523,0.1522,0,0,0.1441,0.1449,0.1456,0.1472,0.1493,0.1504,0.151,0.1527,0.1536,0.1554,0.1555,0.1572,0.1577,0.1588,0.1592,0.1622,0.1628,0.1621,0.1645,0.1692,0.17,0.1708,0.1752,0.1763,0.1627,0.1627,0.1627,0,0.1436,0.1448,0.1461,0.1478,0.149,0.1507,0.1521,0.1537,0.1557,0.1566,0.1565,0.1591,0.1591,0.1622,0.1635,0.1633,0.1661,0.1625,0.17,0.1707,0.1714,0.1757,0.1769,0.1629,0.1629,0.1629,0.1628,0,0.1445,0.1457,0.1465,0.1489,0.1507,0.1523,0.1548,0.1567,0.1577,0.1591,0.162,0.1632,0.1647,0.1656,0.1655,0.1704,0.171,0.1701,0.1687,0.1727,0.177,0.1781,0.1633,0.1632,0.1631,0.1631,0,0,0.1423,0.1461,0.1464,0.1476,0.1513,0.1526,0.1558,0.1588,0.1606,0.1632,0.1658,0.1683,0.169,0.1695,0.1704,0.1745,0.1825,0.1747,0.1749,0.1795,0.1938,0.1948,0.1961,0.1839,0.1841,0.1842,0.1954,0,0.1424,0.1448,0.147,0.1495,0.1509,0.1541,0.1567,0.1598,0.1624,0.1656,0.1684,0.1709,0.1706,0.1721,0.1764,0.1803,0.1855,0.1796,0.1888,0.189,0.1898,0.1974,0.1966,0.2066,0.1965,0.1967,0.1968,0,0.1422,0.1439,0.1458,0.1494,0.1503,0.1521,0.1563,0.1591,0.1645,0.1666,0.1706,0.1729,0.1786,0.1779,0.1882,0.1848,0.1898,0.1932,0.1937,0.1932,0.1921,0.2006,0.209,0.2065,0.1985,0.1984,0.1983,0,0.1391,0.1429,0.144,0.1454,0.1499,0.1511,0.1537,0.1587,0.1615,0.1676,0.1709,0.1769,0.181,0.1878,0.1946,0.1926,0.2064,0.2043,0.2101,0.2102,0.2104,0.2102,0.2176,0.2129,0.2129,0.2128,0.2128,0,0.1379,0.1386,0.1424,0.1429,0.1445,0.1486,0.1511,0.1548,0.1608,0.1649,0.1709,0.1764,0.1841,0.1924,0.1975,0.2081,0.2093,0.2124,0.214,0.2122,0.212,0.2102,0.2059,0.2132,0.2132,0.2131,0.213,0,0.1339,0.1365,0.1376,0.1416,0.1428,0.1437,0.1491,0.1515,0.158,0.164,0.1666,0.1779,0.1898,0.1978,0.2098,0.2126,0.2171,0.2247,0.2218,0.2229,0.2241,0.2201,0.2158,0.2084,0.2333,0.2334,0.2335,0,0.1318,0.1319,0.1353,0.1358,0.1372,0.1396,0.1417,0.1486,0.1525,0.1653,0.1688,0.1825,0.1935,0.2119,0.2203,0.2317,0.2227,0.2348,0.2301,0.2262,0.2229,0.2091,0.202,0.2333,0.2333,0.2334,0.2335,0,0.1275,0.1284,0.1294,0.1309,0.1325,0.1349,0.1391,0.1421,0.1515,0.1596,0.1728,0.1833,0.2035,0.2172,0.2311,0.2365,0.2247,0.2365,0.234,0.2254,0.2092,0.2022,0.2232,0.234,0.234,0.2339,0.2339,0.2339,0.1235,0.1231,0.1247,0.1256,0.1276,0.1301,0.1317,0.1391,0.1469,0.1596,0.1718,0.1884,0.2108,0.2327,0.2347,0.2404,0.2311,0.2389,0.2353,0.2223,0.2116,0.2335,0.2443,0.2443,0.2443,0.2443,0.2443,0,0.1184,0.119,0.1196,0.1212,0.1219,0.1248,0.1299,0.1327,0.1419,0.1587,0.1723,0.199,0.2168,0.2308,0.2473,0.243,0.227,0.2363,0.2181,0.2117,0.2364,0.233,0.2399,0.2399,0.2399,0.2399,0.2399,0.2399,0.1158,0.1146,0.1153,0.115,0.1165,0.1173,0.1195,0.1261,0.1378,0.157,0.1744,0.19,0.2206,0.2446,0.2498,0.2433,0.2215,0.2138,0.2054,0.2272,0.227,0.2269,0.2231,0.2277,0.2277,0.175,0.1747,0.1744]},{"header":{"parameterUnit":"m.s-1","parameterCategory":2,"la1":30.2991,"la2":30.254,"lo1":-89.0895,"lo2":-89.0444,"dy":0.0017,"dx":0.0017,"nx":28,"ny":28,"refTime":"2024-05-30T21:00:00:Z","depth":"0","parameterNumber":3,"parameterNumberName":"V-component_of_CURRENTS"},"data":[0,0,0,0,0,0,0,0,0,0,0,0,0,0,0,0,0,0,0,0,0,0,0,0,0,0,0,0,0,0,0,0,0,0,0,0,0,0,0,0,0,0,0,0,0,0,0,0,0,0,0,0,0,0,0,0,0,0,-0.003,-0.0031,0,-0.0098,-0.0099,-0.01,-0.0142,-0.0142,-0.0142,-0.0142,-0.0245,-0.0247,-0.025,0,0,0,0,0,0,0,0,0,0,0,0,0,0.003,0.0029,-0.003,-0.0031,-0.0032,-0.0098,-0.0099,-0.01,-0.0142,-0.0142,-0.0142,-0.0142,-0.0244,-0.0247,-0.025,0,0,0,0,0,0,0,0,0,0,0,0,0,-0.0013,0.0029,-0.003,-0.006,-0.0063,-0.0098,-0.0099,-0.0101,-0.0142,-0.0142,-0.0142,-0.0142,-0.0243,-0.0247,-0.025,-0.0269,0,0,-0.0262,-0.0264,0,0,0,0,0,0,0,0,-0.0011,-0.0015,-0.0055,-0.0058,-0.0062,-0.0111,-0.0116,-0.0159,-0.0141,-0.0112,-0.0142,-0.0142,-0.0203,-0.021,-0.0222,-0.0274,-0.0279,-0.0263,-0.0265,-0.0267,-0.0268,0,0,0,0,0,0,0,-0.0008,-0.0013,-0.0058,-0.0055,-0.006,-0.0082,-0.0088,-0.0124,-0.0156,-0.0115,-0.0118,-0.0125,-0.0205,-0.0219,-0.0225,-0.028,-0.0262,-0.0266,-0.0268,-0.027,-0.0361,-0.0361,0,0,0,0,0,0,0.0004,-0.001,-0.0055,-0.006,-0.0036,-0.0083,-0.009,-0.0095,-0.0155,-0.0164,-0.0124,-0.0126,-0.0212,-0.0221,-0.0229,-0.0252,-0.0267,-0.027,-0.0272,-0.0361,-0.0361,-0.0361,0,0,0,0,0,0,0.0005,0.0,-0.0053,-0.0036,-0.0044,-0.0083,-0.009,-0.0097,-0.0111,-0.0162,-0.0172,-0.0131,-0.0212,-0.0224,-0.0265,-0.0256,-0.0272,-0.0275,-0.0361,-0.0361,-0.0361,-0.03,0,0,0,0,0,0,0.0007,0.0001,0.0001,-0.0035,-0.0045,-0.0068,-0.009,-0.0098,-0.0115,-0.0118,-0.0172,-0.0181,-0.0213,-0.0259,-0.0269,-0.0262,-0.0278,-0.0361,-0.0361,-0.0361,-0.0302,-0.0298,-0.0295,0,0,0,0,0,0.001,0.0011,0.0001,-0.0004,-0.0044,-0.0068,-0.0075,-0.0104,-0.0115,-0.0118,-0.0159,-0.018,-0.0267,-0.0263,-0.0274,-0.0268,-0.0361,-0.0361,-0.0361,-0.0303,-0.0299,-0.0295,0,0,0,0,0,0,0.0036,0.0006,-0.0005,-0.0013,-0.0036,-0.0075,-0.0082,-0.0101,-0.0135,-0.0139,-0.0187,-0.02,-0.0232,-0.0262,-0.0255,-0.0296,-0.0315,-0.0317,-0.0267,-0.0263,-0.026,-0.0228,-0.0282,0,0,0,0,0,0.0043,0.0037,0.0004,-0.0001,-0.001,-0.0045,-0.0058,-0.0077,-0.0111,-0.0126,-0.0163,-0.0204,-0.0241,-0.0261,-0.0298,-0.0323,-0.0334,-0.0326,-0.0322,-0.0319,-0.0301,-0.0311,-0.0306,-0.0362,-0.0362,-0.0362,0,0,0.0051,0.0035,0.003,0.0004,-0.0016,-0.0023,-0.0053,-0.0069,-0.0075,-0.0133,-0.0153,-0.0196,-0.0247,-0.0274,-0.029,-0.0297,-0.0311,-0.0319,-0.0316,-0.03,-0.0311,-0.0305,-0.03,-0.0362,-0.0362,-0.0362,0,0,0.0069,0.0051,0.0053,0.0038,0.0013,-0.0007,-0.0009,-0.0044,-0.0058,-0.0086,-0.0128,-0.0162,-0.0219,-0.0249,-0.0273,-0.0273,-0.0293,-0.0286,-0.0241,-0.0251,-0.0245,-0.0241,-0.0251,-0.0248,-0.0282,-0.0282,-0.0282,0,0.0081,0.0079,0.005,0.005,0.0044,0.0005,0.001,-0.0012,-0.0056,-0.0061,-0.0084,-0.0156,-0.0203,-0.0229,-0.023,-0.0262,-0.027,-0.0251,-0.0243,-0.0239,-0.0235,-0.0247,-0.0245,-0.0279,-0.0279,-0.028,-0.028,0,0.0098,0.0098,0.0099,0.0088,0.0078,0.0074,0.0046,0.0035,0.0013,-0.0008,-0.0037,-0.01,-0.0138,-0.0161,-0.0198,-0.0198,-0.0213,-0.0237,-0.0247,-0.0225,-0.024,-0.0238,-0.0275,-0.0276,-0.0277,-0.0278,0,0,0.0125,0.0115,0.0115,0.0123,0.01,0.0096,0.0092,0.008,0.0085,0.0042,0.0046,-0.0022,-0.0048,-0.0077,-0.0127,-0.0138,-0.0131,-0.0169,-0.0171,-0.0165,-0.0146,-0.0182,-0.0184,-0.0149,-0.0148,-0.0148,-0.0167,0,0.015,0.0165,0.0151,0.0169,0.0176,0.015,0.0153,0.0137,0.0117,0.0109,0.0058,0.0033,-0.0019,-0.0038,-0.0055,-0.0117,-0.0123,-0.0123,-0.0179,-0.018,-0.0203,-0.0182,-0.0163,-0.0181,-0.0166,-0.0165,-0.0165,0,0.0172,0.0182,0.0204,0.0219,0.022,0.0222,0.0228,0.0225,0.0203,0.0188,0.0162,0.0121,0.0086,0.0042,-0.0023,-0.0019,-0.0067,-0.0111,-0.0113,-0.0161,-0.0212,-0.0201,-0.0179,-0.0312,-0.0163,-0.0163,-0.0163,0,0.0205,0.0221,0.0244,0.0246,0.025,0.026,0.026,0.0249,0.0258,0.0237,0.0239,0.0192,0.0163,0.0107,0.0006,-0.0,-0.0061,-0.0087,-0.0159,-0.0163,-0.0165,-0.017,-0.0264,-0.011,-0.011,-0.011,-0.011,0,0.0236,0.0256,0.0262,0.0273,0.0307,0.0296,0.0324,0.0317,0.0318,0.0336,0.0281,0.0284,0.0181,0.0126,0.0042,-0.0057,-0.0036,-0.0137,-0.0165,-0.0147,-0.0149,-0.0281,-0.0358,-0.011,-0.011,-0.011,-0.011,0,0.0264,0.0267,0.0296,0.0313,0.0321,0.0342,0.0365,0.0385,0.0376,0.0398,0.0396,0.0355,0.0286,0.0175,0.0073,-0.0017,-0.0182,-0.0148,-0.0123,-0.0147,-0.0335,-0.0409,-0.0525,-0.0584,-0.0214,-0.0215,-0.0215,0,0.0278,0.0295,0.0325,0.0346,0.0352,0.038,0.0402,0.0409,0.0433,0.0444,0.0462,0.041,0.0396,0.0224,0.0054,-0.0091,-0.0212,-0.0187,-0.0199,-0.0334,-0.0436,-0.0492,-0.0537,-0.0179,-0.0179,-0.018,-0.018,0,0.0309,0.0315,0.0338,0.0379,0.0406,0.0444,0.0475,0.0509,0.0522,0.0557,0.0596,0.0597,0.0431,0.0294,0.0064,-0.0045,-0.0285,-0.0199,-0.0339,-0.0412,-0.0476,-0.055,-0.0186,-0.0183,-0.0183,-0.0182,-0.0182,-0.0182,0.0328,0.0349,0.0374,0.0415,0.045,0.05,0.0545,0.0598,0.0666,0.075,0.0727,0.0781,0.0539,0.0244,0.0036,-0.0318,-0.0319,-0.0403,-0.0478,-0.052,-0.0589,-0.0237,-0.0273,-0.0273,-0.0273,-0.0273,-0.0273,0,0.0351,0.0373,0.041,0.0458,0.0502,0.0517,0.0592,0.066,0.0766,0.0874,0.0944,0.0898,0.0583,0.0246,-0.0239,-0.0525,-0.0626,-0.0688,-0.0755,-0.0785,-0.0462,-0.0474,-0.0556,-0.0555,-0.0555,-0.0555,-0.0555,-0.0555,0.0363,0.0398,0.0416,0.0488,0.0528,0.0604,0.0657,0.0781,0.0889,0.1066,0.1155,0.1198,0.0975,0.0015,-0.0645,-0.0809,-0.1002,-0.1061,-0.1174,-0.0954,-0.0933,-0.0912,-0.0942,-0.112,-0.1121,-0.1443,-0.1447,-0.1449]}],[{"header":{"parameterUnit":"m.s-1","parameterCategory":2,"la1":30.2991,"la2":30.254,"lo1":-89.0895,"lo2":-89.0444,"dy":0.0017,"dx":0.0017,"nx":28,"ny":28,"refTime":"2024-05-30T21:00:00:Z","depth":"2","parameterNumber":2,"parameterNumberName":"U-component_of_CURRENTS"},"data":[0,0,0,0,0,0,0,0,0,0,0,0,0,0,0,0,0,0,0,0,0,0,0,0,0,0,0,0,0,0,0,0,0,0,0,0,0,0,0,0,0,0,0,0,0,0,0,0,0,0,0,0,0,0,0,0,0,0,0.1457,0.1457,0,0.1481,0.1481,0.1481,0.1495,0.1495,0.1495,0.1495,0.15,0.15,0.15,0,0,0,0,0,0,0,0,0,0,0,0,0,0.1426,0.1426,0.1457,0.1457,0.1457,0.1481,0.1481,0.1481,0.1495,0.1495,0.1495,0.1495,0.15,0.15,0.15,0,0,0,0,0,0,0,0,0,0,0,0,0,0.1442,0.1426,0.1456,0.1468,0.1469,0.1481,0.1481,0.1481,0.1495,0.1495,0.1495,0.1495,0.15,0.15,0.15,0.1497,0,0,0.1501,0.1501,0,0,0,0,0,0,0,0,0.1441,0.1443,0.1466,0.1467,0.1468,0.1486,0.1472,0.1486,0.1495,0.1484,0.1495,0.1495,0.1494,0.1495,0.1498,0.1497,0.1497,0.1501,0.1501,0.1501,0.1501,0,0,0,0,0,0,0,0.144,0.1443,0.1465,0.1466,0.1468,0.1473,0.1475,0.1475,0.1487,0.1485,0.1486,0.149,0.1495,0.1498,0.1498,0.1497,0.1501,0.1501,0.1501,0.1501,0.153,0.1531,0,0,0,0,0,0,0.1439,0.1441,0.1464,0.1466,0.1456,0.1473,0.1476,0.1479,0.1487,0.1489,0.149,0.1491,0.1498,0.1498,0.1498,0.1533,0.1501,0.1501,0.1501,0.153,0.1531,0.1531,0,0,0,0,0,0,0.1438,0.1441,0.1463,0.1455,0.1458,0.1473,0.1477,0.148,0.149,0.1491,0.1493,0.1499,0.1498,0.1498,0.1516,0.1532,0.1501,0.1501,0.1529,0.153,0.1531,0.1578,0,0,0,0,0,0,0.1437,0.144,0.1443,0.1455,0.1459,0.148,0.1477,0.148,0.1492,0.1493,0.1499,0.1499,0.1498,0.1516,0.1516,0.1531,0.1501,0.1528,0.1529,0.1531,0.1576,0.1581,0.1585,0,0,0,0,0,0.1436,0.144,0.1443,0.1446,0.1462,0.1481,0.1484,0.1494,0.1492,0.1502,0.1511,0.1499,0.1525,0.1517,0.1517,0.1532,0.1527,0.1529,0.1531,0.1573,0.158,0.1585,0,0,0,0,0,0,0.1429,0.1442,0.1446,0.1454,0.1471,0.1484,0.1492,0.1497,0.1511,0.1512,0.1511,0.1513,0.1533,0.1526,0.1517,0.1545,0.1523,0.1525,0.1556,0.1561,0.1566,0.1559,0.1501,0,0,0,0,0,0.1428,0.1435,0.1452,0.1459,0.1468,0.148,0.1488,0.1497,0.151,0.1516,0.1521,0.1527,0.1538,0.1545,0.155,0.1566,0.1577,0.1574,0.1579,0.1583,0.1578,0.1624,0.1633,0.1537,0.1537,0.1537,0,0,0.1426,0.1436,0.1439,0.1458,0.1469,0.1487,0.1486,0.1503,0.1518,0.1513,0.1535,0.1542,0.1546,0.1568,0.1576,0.1566,0.1619,0.1586,0.1589,0.1581,0.1627,0.1636,0.1644,0.1538,0.1538,0.1538,0,0,0.1427,0.1436,0.1443,0.1461,0.1482,0.1493,0.15,0.1519,0.1531,0.1553,0.1556,0.1574,0.1587,0.1598,0.1604,0.1635,0.1642,0.1637,0.1659,0.1704,0.1713,0.172,0.1761,0.1772,0.1642,0.1642,0.1642,0,0.1424,0.1436,0.1449,0.1466,0.1479,0.1497,0.1512,0.153,0.1554,0.1564,0.1566,0.1597,0.16,0.1631,0.1646,0.1646,0.1674,0.1638,0.1712,0.1719,0.1726,0.1766,0.1777,0.1644,0.1644,0.1644,0.1644,0,0.1433,0.1446,0.1454,0.1479,0.1498,0.1514,0.1541,0.1561,0.1575,0.159,0.1622,0.1637,0.1654,0.1665,0.1666,0.1714,0.1721,0.1713,0.1699,0.1739,0.1778,0.1789,0.1648,0.1647,0.1646,0.1646,0,0,0.1413,0.1451,0.1454,0.1466,0.1505,0.1519,0.1552,0.1582,0.1601,0.1631,0.1657,0.1686,0.1694,0.17,0.171,0.1751,0.1829,0.1757,0.1758,0.18,0.194,0.1925,0.1935,0.1846,0.1848,0.1849,0.1954,0,0.1414,0.1439,0.1462,0.1488,0.1502,0.1534,0.1562,0.1594,0.1622,0.1654,0.1682,0.1709,0.1709,0.1724,0.1767,0.1809,0.1858,0.1802,0.1891,0.1894,0.1878,0.1946,0.1815,0.1895,0.1964,0.1966,0.1967,0,0.1413,0.1431,0.1451,0.1487,0.1497,0.1516,0.1559,0.1588,0.1641,0.1665,0.1704,0.1726,0.1783,0.1777,0.1881,0.1851,0.1898,0.1933,0.1938,0.191,0.1898,0.1863,0.1912,0.1985,0.1984,0.1982,0.1981,0,0.1383,0.1422,0.1434,0.1448,0.1494,0.1508,0.1535,0.1585,0.1613,0.1674,0.1704,0.1765,0.1805,0.1874,0.1939,0.1925,0.2054,0.2041,0.2073,0.2073,0.1967,0.1954,0.2122,0.2121,0.2121,0.2121,0.2121,0,0.1372,0.138,0.1419,0.1426,0.1442,0.1485,0.1511,0.1549,0.1608,0.1646,0.1705,0.1754,0.1835,0.1911,0.1964,0.2055,0.2079,0.2091,0.2105,0.1981,0.1969,0.2041,0.203,0.2125,0.2124,0.2123,0.2123,0,0.1333,0.1359,0.1372,0.1414,0.1426,0.1437,0.1491,0.1515,0.158,0.1636,0.1659,0.1765,0.1876,0.1951,0.2069,0.2089,0.217,0.2193,0.204,0.2034,0.2154,0.2144,0.2253,0.2253,0.2253,0.2254,0.2254,0,0.1314,0.1316,0.135,0.1357,0.1372,0.1399,0.1419,0.1488,0.1525,0.1644,0.1674,0.1797,0.189,0.2055,0.2116,0.2216,0.2215,0.2124,0.2068,0.2168,0.2171,0.216,0.2151,0.1955,0.1952,0.1951,0.1949,0,0.1273,0.1283,0.1295,0.1311,0.1327,0.1349,0.1391,0.1417,0.1508,0.1578,0.1693,0.1782,0.1948,0.2003,0.2111,0.214,0.2095,0.2092,0.225,0.1938,0.1895,0.1895,0.1893,0.1933,0.1935,0.1936,0.1937,0.1937,0.1235,0.1233,0.125,0.126,0.1279,0.1299,0.1313,0.1379,0.1446,0.1548,0.1657,0.1762,0.1846,0.1975,0.1962,0.1954,0.2096,0.2011,0.2013,0.2018,0.1961,0.192,0.1954,0.1955,0.1957,0.1958,0.1959,0,0.1187,0.1194,0.1201,0.1215,0.1219,0.1249,0.1293,0.1312,0.1385,0.1507,0.1614,0.1582,0.1671,0.1736,0.1732,0.1773,0.1718,0.1684,0.1595,0.1616,0.1634,0.1551,0.1438,0.1435,0.1433,0.1431,0,0,0.1162,0.1151,0.1158,0.115,0.1165,0.1167,0.1185,0.1234,0.1316,0.1378,0.144,0.1619,0.1727,0.1554,0.1562,0.1497,0.1528,0.1443,0.1876,0.1796,0.1809,0.1858,0.1761,0,0,0,0,0]},{"header":{"parameterUnit":"m.s-1","parameterCategory":2,"la1":30.2991,"la2":30.254,"lo1":-89.0895,"lo2":-89.0444,"dy":0.0017,"dx":0.0017,"nx":28,"ny":28,"refTime":"2024-05-30T21:00:00:Z","depth":"2","parameterNumber":3,"parameterNumberName":"V-component_of_CURRENTS"},"data":[0,0,0,0,0,0,0,0,0,0,0,0,0,0,0,0,0,0,0,0,0,0,0,0,0,0,0,0,0,0,0,0,0,0,0,0,0,0,0,0,0,0,0,0,0,0,0,0,0,0,0,0,0,0,0,0,0,0,-0.013,-0.0131,0,-0.0196,-0.0197,-0.0198,-0.0237,-0.0237,-0.0237,-0.0237,-0.0339,-0.0341,-0.0344,0,0,0,0,0,0,0,0,0,0,0,0,0,-0.0074,-0.0075,-0.013,-0.0131,-0.0131,-0.0196,-0.0197,-0.0198,-0.0237,-0.0237,-0.0237,-0.0237,-0.0338,-0.0341,-0.0344,0,0,0,0,0,0,0,0,0,0,0,0,0,-0.0116,-0.0075,-0.013,-0.0158,-0.0162,-0.0196,-0.0197,-0.0198,-0.0237,-0.0237,-0.0237,-0.0238,-0.0337,-0.0341,-0.0345,-0.0365,0,0,-0.0357,-0.0358,0,0,0,0,0,0,0,0,-0.0113,-0.0118,-0.0153,-0.0156,-0.016,-0.0208,-0.0215,-0.0255,-0.0237,-0.0209,-0.0237,-0.0238,-0.0298,-0.0305,-0.0317,-0.037,-0.0374,-0.0357,-0.0359,-0.0361,-0.0362,0,0,0,0,0,0,0,-0.011,-0.0115,-0.0157,-0.0154,-0.0158,-0.018,-0.0186,-0.0223,-0.0253,-0.0211,-0.0214,-0.0221,-0.03,-0.0313,-0.032,-0.0375,-0.0357,-0.036,-0.0363,-0.0364,-0.0458,-0.0458,0,0,0,0,0,0,-0.0099,-0.0112,-0.0155,-0.0159,-0.0136,-0.0181,-0.0188,-0.0193,-0.0252,-0.026,-0.022,-0.0222,-0.0307,-0.0316,-0.0324,-0.0348,-0.0361,-0.0365,-0.0367,-0.0457,-0.0458,-0.0458,0,0,0,0,0,0,-0.0097,-0.0102,-0.0152,-0.0137,-0.0144,-0.0182,-0.0187,-0.0194,-0.0207,-0.0258,-0.0268,-0.0227,-0.0307,-0.0318,-0.036,-0.0353,-0.0366,-0.037,-0.0457,-0.0457,-0.0458,-0.0399,0,0,0,0,0,0,-0.0095,-0.0101,-0.0101,-0.0136,-0.0145,-0.0167,-0.0187,-0.0195,-0.0211,-0.0214,-0.0267,-0.0276,-0.0308,-0.0354,-0.0364,-0.0358,-0.0373,-0.0457,-0.0457,-0.0458,-0.0401,-0.0398,-0.0395,0,0,0,0,0,-0.0093,-0.0091,-0.01,-0.0106,-0.0143,-0.0167,-0.0174,-0.0201,-0.0211,-0.0214,-0.0255,-0.0275,-0.0362,-0.0357,-0.0369,-0.0364,-0.0457,-0.0457,-0.0458,-0.0403,-0.0398,-0.0395,0,0,0,0,0,0,-0.0068,-0.0096,-0.0107,-0.0114,-0.0136,-0.0173,-0.018,-0.0198,-0.0231,-0.0235,-0.0282,-0.0295,-0.0327,-0.0357,-0.035,-0.0393,-0.0411,-0.0413,-0.0365,-0.0362,-0.0358,-0.0332,-0.0376,0,0,0,0,0,-0.0061,-0.0067,-0.0097,-0.0102,-0.0111,-0.0144,-0.0157,-0.0174,-0.0208,-0.0223,-0.0259,-0.03,-0.0338,-0.0358,-0.0396,-0.0421,-0.0435,-0.0425,-0.0422,-0.0419,-0.0406,-0.0426,-0.0422,-0.0459,-0.0459,-0.0459,0,0,-0.0053,-0.0068,-0.0073,-0.0097,-0.0116,-0.0125,-0.0152,-0.0167,-0.0174,-0.0229,-0.0251,-0.0292,-0.0344,-0.0372,-0.0388,-0.0395,-0.0416,-0.0419,-0.0416,-0.0405,-0.0426,-0.0422,-0.0419,-0.0459,-0.0459,-0.0459,0,0,-0.0037,-0.0052,-0.0051,-0.0066,-0.0089,-0.0109,-0.011,-0.0144,-0.0158,-0.0186,-0.0227,-0.0263,-0.0318,-0.0351,-0.0376,-0.0378,-0.0399,-0.039,-0.0351,-0.037,-0.0366,-0.0364,-0.037,-0.0368,-0.0386,-0.0386,-0.0386,0,-0.0025,-0.0027,-0.0054,-0.0055,-0.0062,-0.0097,-0.0094,-0.0115,-0.0158,-0.0166,-0.0184,-0.026,-0.0305,-0.0339,-0.034,-0.0369,-0.0377,-0.0359,-0.0363,-0.0361,-0.0359,-0.0366,-0.0365,-0.0383,-0.0383,-0.0384,-0.0384,0,-0.001,-0.001,-0.001,-0.0021,-0.0032,-0.0036,-0.0064,-0.0075,-0.0096,-0.0118,-0.0152,-0.0212,-0.0254,-0.0276,-0.031,-0.032,-0.033,-0.0357,-0.0367,-0.0351,-0.0361,-0.036,-0.0379,-0.038,-0.0381,-0.0382,0,0,0.0015,0.0005,0.0005,0.0011,-0.0012,-0.0018,-0.0024,-0.004,-0.0039,-0.0081,-0.0084,-0.0151,-0.0177,-0.0207,-0.0255,-0.0272,-0.0271,-0.03,-0.0303,-0.0294,-0.0299,-0.0317,-0.0319,-0.0296,-0.0295,-0.0295,-0.0308,0,0.0037,0.0049,0.0036,0.0049,0.0054,0.0028,0.0027,0.0009,-0.0013,-0.0026,-0.008,-0.0107,-0.0154,-0.0172,-0.0196,-0.0257,-0.0269,-0.0264,-0.0326,-0.0327,-0.0335,-0.0319,-0.0296,-0.0306,-0.0307,-0.0307,-0.0307,0,0.0056,0.0064,0.0082,0.0091,0.0091,0.0092,0.0091,0.0085,0.0057,0.004,0.0009,-0.0031,-0.0071,-0.0111,-0.0183,-0.0176,-0.0224,-0.0268,-0.027,-0.0304,-0.0345,-0.0325,-0.0306,-0.0307,-0.0307,-0.0307,-0.0307,0,0.0086,0.0097,0.0116,0.0117,0.0117,0.0124,0.0122,0.0105,0.0111,0.0083,0.0085,0.003,0.0004,-0.0061,-0.0153,-0.0163,-0.0226,-0.0257,-0.0315,-0.0316,-0.0318,-0.032,-0.0293,-0.0293,-0.0293,-0.0293,-0.0293,0,0.0112,0.0128,0.0133,0.0142,0.017,0.0157,0.0179,0.0169,0.0165,0.0181,0.0122,0.0125,0.0017,-0.0036,-0.0121,-0.0213,-0.0203,-0.0296,-0.0319,-0.0298,-0.0298,-0.032,-0.0323,-0.0294,-0.0293,-0.0293,-0.0293,0,0.0137,0.0139,0.0164,0.0176,0.0183,0.0201,0.022,0.0236,0.0226,0.0245,0.0243,0.0201,0.0136,0.0026,-0.0081,-0.0169,-0.0261,-0.0297,-0.0258,-0.0277,-0.0342,-0.0342,-0.0351,-0.0352,-0.0352,-0.0353,-0.0353,0,0.015,0.0165,0.019,0.0209,0.0215,0.0239,0.0258,0.0262,0.0284,0.0296,0.0313,0.0267,0.025,0.0085,-0.0079,-0.0222,-0.0253,-0.0306,-0.0329,-0.0325,-0.0347,-0.0346,-0.0345,-0.0304,-0.0304,-0.0304,-0.0304,0,0.0176,0.0183,0.0202,0.0241,0.0267,0.0301,0.0331,0.0364,0.0376,0.0408,0.0448,0.0445,0.0291,0.0156,-0.006,-0.0164,-0.0284,-0.0311,-0.0314,-0.0298,-0.0284,-0.0305,-0.0305,-0.0304,-0.0304,-0.0304,-0.0304,-0.0304,0.0194,0.0212,0.0237,0.0275,0.031,0.036,0.0402,0.0451,0.0514,0.0583,0.0565,0.0582,0.0394,0.015,-0.0059,-0.0279,-0.0271,-0.0342,-0.0341,-0.034,-0.0338,-0.0326,-0.0352,-0.0353,-0.0353,-0.0353,-0.0353,0,0.0214,0.0235,0.027,0.0317,0.0361,0.0377,0.045,0.0508,0.0605,0.0679,0.0733,0.0593,0.0429,0.021,-0.0113,-0.0313,-0.0327,-0.0373,-0.0346,-0.0345,-0.0344,-0.0341,-0.0357,-0.0358,-0.0358,-0.0359,0,0,0.0224,0.0257,0.0274,0.0347,0.0388,0.0462,0.0514,0.0616,0.0695,0.0787,0.0819,0.0819,0.0535,0.0305,0.0023,-0.0166,-0.0207,-0.0202,-0.0176,-0.0109,-0.0106,-0.0303,-0.0295,0,0,0,0,0]}],[{"header":{"parameterUnit":"m.s-1","parameterCategory":2,"la1":30.2991,"la2":30.254,"lo1":-89.0895,"lo2":-89.0444,"dy":0.0017,"dx":0.0017,"nx":28,"ny":28,"refTime":"2024-05-30T21:00:00:Z","depth":"4","parameterNumber":2,"parameterNumberName":"U-component_of_CURRENTS"},"data":[0,0,0,0,0,0,0,0,0,0,0,0,0,0,0,0,0,0,0,0,0,0,0,0,0,0,0,0,0,0,0,0,0,0,0,0,0,0,0,0,0,0,0,0,0,0,0,0,0,0,0,0,0,0,0,0,0,0,0.0957,0.0957,0,0.097,0.097,0.097,0.0997,0.0998,0.0999,0.1,0.1005,0.1005,0.1004,0,0,0,0,0,0,0,0,0,0,0,0,0,0.0906,0.0907,0.0957,0.0957,0.0958,0.097,0.097,0.097,0.0997,0.0998,0.0999,0.1,0.1005,0.1005,0.1004,0,0,0,0,0,0,0,0,0,0,0,0,0,0.0922,0.0907,0.0957,0.0975,0.0977,0.097,0.097,0.097,0.0997,0.0998,0.0999,0.1,0.1006,0.1005,0.1004,0.0974,0,0,0.1001,0.1001,0,0,0,0,0,0,0,0,0.0921,0.0923,0.0972,0.0974,0.0976,0.0986,0.0955,0.0972,0.0996,0.0986,0.1,0.1001,0.0999,0.0999,0.0995,0.0975,0.0975,0.1001,0.1001,0.1,0.1,0,0,0,0,0,0,0,0.092,0.0923,0.0959,0.0972,0.0975,0.0966,0.0969,0.0958,0.0983,0.0987,0.099,0.0996,0.1,0.0995,0.0995,0.0975,0.1001,0.1,0.1,0.0999,0.103,0.1031,0,0,0,0,0,0,0.0925,0.0922,0.0959,0.096,0.0954,0.0966,0.097,0.0979,0.0984,0.0986,0.0995,0.0997,0.0996,0.0996,0.0995,0.1044,0.1,0.0999,0.0999,0.1029,0.103,0.1032,0,0,0,0,0,0,0.0924,0.0929,0.0958,0.0943,0.0947,0.0966,0.0976,0.0979,0.1001,0.099,0.0992,0.1017,0.0997,0.0997,0.1011,0.1042,0.0999,0.0998,0.1027,0.1029,0.1031,0.1088,0,0,0,0,0,0,0.0923,0.0928,0.0943,0.0944,0.0948,0.0973,0.0975,0.0978,0.1002,0.1006,0.1009,0.101,0.0998,0.1013,0.101,0.104,0.0997,0.1025,0.1028,0.103,0.1085,0.1092,0.1098,0,0,0,0,0,0.0921,0.0934,0.0944,0.0949,0.0966,0.0974,0.0975,0.099,0.1003,0.1014,0.1021,0.1011,0.1028,0.1012,0.1009,0.1039,0.1024,0.1027,0.103,0.1082,0.1091,0.1098,0,0,0,0,0,0,0.0918,0.0938,0.0949,0.0968,0.098,0.098,0.0995,0.1003,0.1016,0.1028,0.1017,0.1018,0.1043,0.1032,0.1016,0.1057,0.1028,0.1031,0.1068,0.1076,0.1083,0.1085,0.0997,0,0,0,0,0,0.0924,0.0944,0.0956,0.0974,0.0983,0.0993,0.1002,0.1013,0.1021,0.103,0.1034,0.1041,0.1047,0.1056,0.1054,0.107,0.1068,0.1091,0.1098,0.1104,0.1105,0.1125,0.1134,0.1042,0.1042,0.1041,0,0,0.0928,0.0943,0.0954,0.0976,0.0987,0.0999,0.1002,0.1024,0.1039,0.1026,0.1055,0.106,0.1055,0.1078,0.1089,0.1078,0.1134,0.1108,0.1113,0.111,0.1129,0.1138,0.1146,0.1044,0.1043,0.1043,0,0,0.0936,0.096,0.0976,0.099,0.1016,0.102,0.1033,0.1049,0.1066,0.1087,0.1088,0.1114,0.1118,0.1127,0.113,0.1171,0.1165,0.118,0.122,0.1241,0.1248,0.1255,0.1282,0.129,0.1189,0.1189,0.1189,0,0.094,0.0963,0.0981,0.0999,0.1015,0.1033,0.105,0.1063,0.1084,0.1102,0.1107,0.1141,0.1141,0.1171,0.1194,0.1187,0.12,0.1188,0.1249,0.1256,0.1262,0.1287,0.1296,0.1192,0.1192,0.1192,0.1191,0,0.0953,0.098,0.0991,0.1022,0.1039,0.1059,0.108,0.1106,0.113,0.1145,0.1189,0.1196,0.1221,0.1232,0.1225,0.1274,0.1272,0.1251,0.1227,0.1274,0.1299,0.1306,0.1197,0.1196,0.1195,0.1194,0,0,0.0941,0.0991,0.0998,0.1018,0.1056,0.1068,0.1104,0.1136,0.1167,0.1199,0.124,0.1267,0.1288,0.1292,0.1299,0.1323,0.1383,0.1314,0.1314,0.1339,0.1443,0.1383,0.1385,0.1377,0.1379,0.138,0.1449,0,0.0947,0.0984,0.1008,0.1044,0.1064,0.1097,0.1126,0.1162,0.1197,0.124,0.1271,0.1309,0.1306,0.1334,0.1359,0.1373,0.1404,0.1367,0.1395,0.1396,0.1334,0.1392,0.1384,0.1455,0.1457,0.1458,0.1459,0,0.0948,0.0975,0.1013,0.1063,0.1076,0.1103,0.1161,0.1191,0.1251,0.1283,0.1334,0.1357,0.1412,0.1396,0.1454,0.1434,0.1449,0.1455,0.1457,0.1382,0.1349,0.1394,0.1473,0.1472,0.1471,0.147,0.1469,0,0.0924,0.0976,0.1009,0.1026,0.1083,0.1116,0.1151,0.1211,0.1244,0.1321,0.1357,0.1415,0.1459,0.1482,0.1517,0.1492,0.1575,0.1534,0.1494,0.1491,0.1497,0.1488,0.1574,0.1574,0.1574,0.1573,0.1573,0,0.0911,0.0939,0.1007,0.1024,0.1067,0.1116,0.1168,0.1213,0.1283,0.1321,0.1386,0.1426,0.1485,0.1538,0.1546,0.1558,0.1604,0.1513,0.1506,0.1522,0.1516,0.1503,0.1494,0.1576,0.1575,0.1575,0.1574,0,0.0876,0.0921,0.0961,0.1033,0.1058,0.1093,0.1171,0.1202,0.128,0.1335,0.1365,0.1458,0.1527,0.1581,0.1634,0.1595,0.1608,0.1601,0.1644,0.1637,0.15,0.1493,0.1545,0.1544,0.1542,0.1541,0.154,0,0.0859,0.0879,0.0959,0.0983,0.1021,0.1078,0.1111,0.1193,0.1224,0.1338,0.1355,0.1465,0.1515,0.1551,0.1611,0.1642,0.1621,0.1618,0.1527,0.151,0.1498,0.1493,0.1488,0.1538,0.1538,0.1538,0.1537,0,0.0823,0.0863,0.0896,0.0948,0.0992,0.1025,0.1083,0.1095,0.1183,0.1267,0.1316,0.1364,0.145,0.1504,0.1562,0.1569,0.1607,0.1603,0.1604,0.1518,0.1502,0.1491,0.1487,0.1533,0.1534,0.1534,0.1534,0,0.0798,0.0813,0.0864,0.09,0.0948,0.0958,0.0992,0.1031,0.1073,0.1191,0.1211,0.1328,0.1429,0.1469,0.1514,0.1534,0.1493,0.1423,0.1432,0.1438,0.1373,0.1335,0.132,0,0,0,0,0,0.0767,0.0777,0.0809,0.0842,0.0883,0.0911,0.0965,0.0999,0.1082,0.1084,0.1142,0.1213,0.1289,0.136,0.136,0.1472,0.1502,0.1466,0.1426,0.1508,0.1513,0.1448,0,0,0,0,0,0,0.0746,0.0776,0.0789,0.0784,0.0794,0.0828,0.0857,0.091,0.0916,0.1011,0.1064,0.1147,0.1247,0.1284,0.1342,0.1363,0.1314,0.1546,0.1543,0.1505,0.151,0.1514,0.1449,0,0,0,0,0]},{"header":{"parameterUnit":"m.s-1","parameterCategory":2,"la1":30.2991,"la2":30.254,"lo1":-89.0895,"lo2":-89.0444,"dy":0.0017,"dx":0.0017,"nx":28,"ny":28,"refTime":"2024-05-30T21:00:00:Z","depth":"4","parameterNumber":3,"parameterNumberName":"V-component_of_CURRENTS"},"data":[0,0,0,0,0,0,0,0,0,0,0,0,0,0,0,0,0,0,0,0,0,0,0,0,0,0,0,0,0,0,0,0,0,0,0,0,0,0,0,0,0,0,0,0,0,0,0,0,0,0,0,0,0,0,0,0,0,0,-0.009,-0.0091,0,-0.0131,-0.0132,-0.0132,-0.0162,-0.0162,-0.0162,-0.0162,-0.0231,-0.0233,-0.0234,0,0,0,0,0,0,0,0,0,0,0,0,0,-0.0058,-0.0058,-0.009,-0.0091,-0.0091,-0.0131,-0.0132,-0.0132,-0.0161,-0.0162,-0.0162,-0.0162,-0.0231,-0.0232,-0.0234,0,0,0,0,0,0,0,0,0,0,0,0,0,-0.0083,-0.0058,-0.009,-0.0111,-0.0113,-0.0131,-0.0132,-0.0132,-0.0161,-0.0162,-0.0162,-0.0162,-0.023,-0.0232,-0.0235,-0.0242,0,0,-0.0242,-0.0243,0,0,0,0,0,0,0,0,-0.0081,-0.0084,-0.0107,-0.0109,-0.0112,-0.0142,-0.0146,-0.0171,-0.0161,-0.0143,-0.0162,-0.0163,-0.0204,-0.0208,-0.0215,-0.0245,-0.0248,-0.0242,-0.0244,-0.0245,-0.0245,0,0,0,0,0,0,0,-0.0079,-0.0082,-0.0107,-0.0108,-0.0111,-0.0125,-0.0129,-0.015,-0.0171,-0.0145,-0.0147,-0.0151,-0.0205,-0.0212,-0.0216,-0.0249,-0.0242,-0.0244,-0.0246,-0.0247,-0.0319,-0.032,0,0,0,0,0,0,-0.0073,-0.008,-0.0105,-0.0108,-0.0097,-0.0125,-0.0129,-0.0132,-0.017,-0.0176,-0.0151,-0.0153,-0.0208,-0.0214,-0.0219,-0.0246,-0.0245,-0.0247,-0.0248,-0.0319,-0.0319,-0.032,0,0,0,0,0,0,-0.0072,-0.0075,-0.0104,-0.0095,-0.01,-0.0125,-0.0128,-0.0132,-0.0144,-0.0175,-0.0182,-0.0158,-0.0208,-0.0216,-0.0243,-0.0249,-0.0248,-0.025,-0.0318,-0.0319,-0.032,-0.029,0,0,0,0,0,0,-0.0071,-0.0074,-0.0074,-0.0095,-0.01,-0.0113,-0.0128,-0.0133,-0.0146,-0.0148,-0.0183,-0.019,-0.0209,-0.0239,-0.0245,-0.0252,-0.0252,-0.0318,-0.0319,-0.0319,-0.0291,-0.029,-0.0289,0,0,0,0,0,-0.0069,-0.0068,-0.0074,-0.0077,-0.01,-0.0113,-0.0117,-0.0137,-0.0145,-0.0148,-0.0175,-0.0189,-0.0249,-0.0241,-0.0248,-0.0256,-0.0317,-0.0318,-0.0319,-0.0291,-0.029,-0.0289,0,0,0,0,0,0,-0.0054,-0.0071,-0.0079,-0.0082,-0.0096,-0.0118,-0.0123,-0.0136,-0.0158,-0.0163,-0.0192,-0.0201,-0.0229,-0.0247,-0.0237,-0.0281,-0.0287,-0.0289,-0.0263,-0.0262,-0.0262,-0.0255,-0.0254,0,0,0,0,0,-0.005,-0.0053,-0.0072,-0.0074,-0.008,-0.0102,-0.011,-0.0122,-0.0144,-0.0154,-0.0179,-0.0209,-0.0238,-0.0253,-0.028,-0.0299,-0.0315,-0.0311,-0.031,-0.0309,-0.031,-0.0348,-0.0351,-0.0323,-0.0323,-0.0323,0,0,-0.0045,-0.0054,-0.0057,-0.0071,-0.0084,-0.009,-0.0108,-0.0118,-0.0125,-0.0158,-0.0177,-0.0208,-0.0244,-0.0269,-0.0283,-0.0284,-0.0321,-0.0311,-0.031,-0.0311,-0.035,-0.0352,-0.0355,-0.0324,-0.0324,-0.0324,0,0,-0.0035,-0.0044,-0.0044,-0.0053,-0.0069,-0.0082,-0.0084,-0.0106,-0.0119,-0.0138,-0.0169,-0.0203,-0.0238,-0.027,-0.0289,-0.0302,-0.0318,-0.031,-0.0299,-0.0336,-0.0338,-0.0341,-0.0342,-0.0345,-0.0307,-0.0307,-0.0307,0,-0.0028,-0.003,-0.0046,-0.0047,-0.0053,-0.0076,-0.0077,-0.0091,-0.012,-0.0132,-0.014,-0.0209,-0.024,-0.028,-0.0286,-0.0301,-0.0311,-0.0296,-0.0334,-0.0337,-0.034,-0.0341,-0.0345,-0.0306,-0.0306,-0.0306,-0.0306,0,-0.002,-0.0021,-0.0021,-0.003,-0.0038,-0.0042,-0.0062,-0.0074,-0.0091,-0.011,-0.015,-0.0194,-0.0234,-0.0253,-0.0273,-0.0312,-0.0308,-0.0329,-0.0332,-0.0341,-0.0341,-0.0345,-0.0304,-0.0305,-0.0305,-0.0305,0,0,-0.0007,-0.0013,-0.0013,-0.0012,-0.0028,-0.0033,-0.0044,-0.0063,-0.007,-0.0106,-0.0122,-0.0185,-0.0209,-0.0235,-0.027,-0.0305,-0.033,-0.0321,-0.0324,-0.0314,-0.0385,-0.0345,-0.0345,-0.0358,-0.0359,-0.036,-0.0368,0,0.0004,0.001,0.0002,0.0006,0.0007,-0.0013,-0.0019,-0.004,-0.006,-0.0079,-0.0134,-0.0161,-0.0201,-0.0217,-0.0262,-0.0315,-0.0344,-0.0324,-0.0385,-0.0387,-0.0344,-0.035,-0.0363,-0.0371,-0.0372,-0.0373,-0.0374,0,0.0013,0.0017,0.0026,0.0026,0.0025,0.0024,0.0011,0.0003,-0.0031,-0.0047,-0.0089,-0.0121,-0.0178,-0.0208,-0.0302,-0.0286,-0.0332,-0.0373,-0.0375,-0.0353,-0.0355,-0.0369,-0.0381,-0.0381,-0.038,-0.038,-0.0379,0,0.0028,0.0032,0.0042,0.0041,0.0038,0.0037,0.0033,0.001,0.0013,-0.0023,-0.0022,-0.0097,-0.0116,-0.0205,-0.0275,-0.0292,-0.0363,-0.0399,-0.0406,-0.0402,-0.0447,-0.0445,-0.0467,-0.0467,-0.0467,-0.0467,-0.0467,0,0.004,0.0047,0.0051,0.0056,0.007,0.0058,0.0067,0.0053,0.0045,0.0057,-0.0002,-0.0002,-0.0117,-0.0163,-0.0254,-0.0323,-0.0346,-0.04,-0.0408,-0.0431,-0.0427,-0.0448,-0.0446,-0.0467,-0.0467,-0.0467,-0.0467,0,0.0051,0.0053,0.0067,0.0072,0.0078,0.0087,0.0103,0.0111,0.01,0.0116,0.0114,0.0076,0.0017,-0.0082,-0.02,-0.027,-0.0359,-0.0378,-0.0356,-0.0363,-0.0379,-0.0375,-0.0399,-0.0398,-0.0397,-0.0396,-0.0395,0,0.0056,0.0065,0.0083,0.0098,0.0103,0.0118,0.0132,0.0133,0.0153,0.0168,0.0184,0.0154,0.0113,0.0001,-0.0127,-0.0275,-0.0307,-0.0344,-0.0408,-0.0369,-0.0375,-0.0373,-0.0371,-0.0394,-0.0393,-0.0393,-0.0393,0,0.0068,0.0074,0.0087,0.0119,0.0141,0.0169,0.0194,0.0221,0.0234,0.0229,0.0261,0.0205,0.0154,0.0036,-0.0058,-0.018,-0.0324,-0.0335,-0.0339,-0.04,-0.0363,-0.0369,-0.0368,-0.0389,-0.039,-0.039,-0.039,0,0.0077,0.0089,0.0109,0.0139,0.0172,0.0215,0.0225,0.0262,0.0286,0.0309,0.0325,0.0259,0.0222,0.0087,-0.0011,-0.011,-0.0165,-0.0223,-0.0234,-0.024,-0.0203,-0.0134,-0.0092,0,0,0,0,0,0.0083,0.01,0.0128,0.0164,0.0201,0.0222,0.0267,0.0277,0.0302,0.0338,0.0337,0.029,0.0171,0.012,0.0027,-0.0031,-0.0204,-0.0146,-0.0281,-0.037,-0.0374,-0.0356,0,0,0,0,0,0,0.0087,0.0111,0.0127,0.0183,0.0214,0.0259,0.029,0.0308,0.033,0.0345,0.0291,0.026,0.0144,0.023,0.0026,-0.0005,-0.0106,-0.0205,-0.0207,-0.0368,-0.0371,-0.0375,-0.0358,0,0,0,0,0]}]]